Location: Sihaung
(22.8641°N, 94.0549°E)
Time: 12:57:47
(UTC+00:00)

Mugunghwa Rocket - Pass Details

Date: 03 March 2021
Orbit: 936 x 1372 km, 26.7° (Epoch: 16 April)

Event Time Altitude Azimuth Distance (km) Brightness Sun altitude
Exits shadow 22:47:42 29° 267° (W) 1,753 4.7 -18.1°
Maximum altitude 22:51:03 56° 203° (SSW) 1,143 4.2 -17.3°
Drops below altitude 10° 22:57:14 10° 126° (SE) 2,642 7.1 -15.9°
Sets 22:59:50 0° 122° (ESE) 3,574 8.0 -15.3°
